[[{"header":{"parameterUnit":"m.s-1","parameterCategory":1,"la1":30.2991,"la2":30.254,"lo1":-89.0895,"lo2":-89.0444,"dy":0.0017,"dx":0.0017,"nx":28,"ny":28,"refTime":"2025-06-05T03:00:00:Z","depth":0,"parameterNumber":2,"parameterNumberName":"U-component_of_WINDS"},"data":[0,0,0,0,0,0,0,0,0,0,0,0,0,0,0,0,0,0,0,0,0,0,0,0,0,0,0,0,0,0,0,0,0,0,0,0,0,0,0,0,0,0,0,0,0,0,0,0,0,0,0,0,0,0,0,0,0,0,-2.3405,-2.3405,0,-2.3445,-2.3445,-2.3446,-2.345,-2.3449,-2.3449,-2.3449,-2.3489,-2.3491,-2.3492,0,0,0,0,0,0,0,0,0,0,0,0,0,-2.3332,-2.3334,-2.3405,-2.3405,-2.3406,-2.3445,-2.3445,-2.3446,-2.345,-2.3449,-2.3449,-2.3448,-2.3489,-2.349,-2.3492,0,0,0,0,0,0,0,0,0,0,0,0,0,-2.3367,-2.3334,-2.3405,-2.3412,-2.3414,-2.3445,-2.3445,-2.3446,-2.345,-2.3449,-2.3449,-2.3448,-2.3488,-2.349,-2.3492,-2.3518,0,0,-2.3499,-2.35,0,0,0,0,0,0,0,0,-2.3365,-2.337,-2.3411,-2.3412,-2.3413,-2.3442,-2.3435,-2.347,-2.345,-2.3436,-2.3449,-2.3448,-2.3474,-2.3477,-2.3486,-2.352,-2.3522,-2.3499,-2.3501,-2.3502,-2.3502,0,0,0,0,0,0,0,-2.3363,-2.3368,-2.3421,-2.3411,-2.3413,-2.3414,-2.3418,-2.3441,-2.3458,-2.3437,-2.3438,-2.3442,-2.3474,-2.3484,-2.3487,-2.3523,-2.3499,-2.3501,-2.3503,-2.3503,-2.3581,-2.3582,0,0,0,0,0,0,-2.3359,-2.3366,-2.3419,-2.3422,-2.3387,-2.3416,-2.3421,-2.3433,-2.3458,-2.3461,-2.3443,-2.3442,-2.348,-2.3484,-2.3488,-2.352,-2.3502,-2.3504,-2.3505,-2.3581,-2.3581,-2.3582,0,0,0,0,0,0,-2.3357,-2.3364,-2.3418,-2.3394,-2.3401,-2.3418,-2.3432,-2.3434,-2.3444,-2.3462,-2.3465,-2.3449,-2.348,-2.3485,-2.3511,-2.3522,-2.3505,-2.3507,-2.358,-2.3581,-2.3582,-2.3585,0,0,0,0,0,0,-2.3355,-2.3363,-2.3373,-2.3394,-2.3402,-2.3439,-2.3433,-2.3436,-2.3448,-2.3447,-2.3469,-2.3472,-2.348,-2.3508,-2.3513,-2.3525,-2.3508,-2.3579,-2.358,-2.3581,-2.3584,-2.3586,-2.3588,0,0,0,0,0,-2.3353,-2.3372,-2.3373,-2.3379,-2.3415,-2.344,-2.3445,-2.3454,-2.3448,-2.3458,-2.3471,-2.3471,-2.352,-2.351,-2.3517,-2.3529,-2.3578,-2.358,-2.3581,-2.3583,-2.3585,-2.3587,0,0,0,0,0,0,-2.335,-2.3374,-2.3376,-2.3403,-2.3419,-2.3441,-2.3453,-2.3456,-2.3474,-2.3473,-2.3484,-2.3489,-2.3514,-2.3524,-2.3513,-2.3556,-2.3549,-2.3552,-2.3548,-2.355,-2.3552,-2.3548,-2.351,0,0,0,0,0,-2.3353,-2.3371,-2.3392,-2.3413,-2.3421,-2.3436,-2.3447,-2.3453,-2.3471,-2.3477,-2.3491,-2.3508,-2.3527,-2.354,-2.3558,-2.3586,-2.3591,-2.3598,-2.36,-2.3601,-2.3603,-2.3619,-2.3622,-2.3588,-2.3588,-2.3588,0,0,-2.3358,-2.3374,-2.3384,-2.3413,-2.3426,-2.3445,-2.3442,-2.3462,-2.3476,-2.348,-2.3505,-2.3516,-2.3536,-2.3563,-2.3575,-2.3572,-2.3614,-2.3603,-2.3604,-2.3605,-2.3621,-2.3624,-2.3627,-2.3589,-2.3589,-2.3589,0,0,-2.3377,-2.3391,-2.341,-2.3424,-2.3445,-2.3455,-2.346,-2.3481,-2.3489,-2.3515,-2.3519,-2.3536,-2.3569,-2.3583,-2.3594,-2.3621,-2.3623,-2.3627,-2.3637,-2.3652,-2.3654,-2.3657,-2.3666,-2.3669,-2.363,-2.363,-2.363,0,-2.3381,-2.3409,-2.342,-2.344,-2.3453,-2.3459,-2.3479,-2.3492,-2.3518,-2.3526,-2.3523,-2.3565,-2.3579,-2.3609,-2.3616,-2.3625,-2.3631,-2.3624,-2.3653,-2.3656,-2.3658,-2.3667,-2.367,-2.363,-2.363,-2.363,-2.363,0,-2.3413,-2.3433,-2.3446,-2.3471,-2.3486,-2.3505,-2.352,-2.3533,-2.3538,-2.3549,-2.3576,-2.3593,-2.3615,-2.3623,-2.3628,-2.3655,-2.3652,-2.3651,-2.3644,-2.3662,-2.367,-2.3673,-2.363,-2.363,-2.363,-2.363,0,0,-2.3429,-2.3461,-2.3466,-2.3478,-2.3502,-2.3518,-2.3539,-2.3561,-2.3572,-2.3591,-2.3608,-2.3637,-2.3637,-2.365,-2.3657,-2.3671,-2.369,-2.3668,-2.3668,-2.367,-2.372,-2.372,-2.3724,-2.3693,-2.3693,-2.3694,-2.3718,0,-2.345,-2.3487,-2.3498,-2.3529,-2.3548,-2.3555,-2.3573,-2.359,-2.3601,-2.3619,-2.3632,-2.3652,-2.365,-2.3658,-2.3672,-2.3685,-2.37,-2.3684,-2.3708,-2.3709,-2.3701,-2.3728,-2.3727,-2.375,-2.3722,-2.3722,-2.3723,0,-2.3479,-2.3498,-2.3531,-2.3554,-2.3562,-2.3578,-2.36,-2.3617,-2.3637,-2.3645,-2.366,-2.3667,-2.3689,-2.3683,-2.3714,-2.3702,-2.3714,-2.3722,-2.3723,-2.3724,-2.3716,-2.3729,-2.3757,-2.376,-2.3728,-2.3728,-2.3727,0,-2.3486,-2.3521,-2.3545,-2.3555,-2.3582,-2.3593,-2.3605,-2.3625,-2.3638,-2.3658,-2.3667,-2.3689,-2.3701,-2.3718,-2.3731,-2.3725,-2.3761,-2.3755,-2.3767,-2.3767,-2.3773,-2.3772,-2.3802,-2.3783,-2.3783,-2.3783,-2.3782,0,-2.3508,-2.3527,-2.3549,-2.3563,-2.3586,-2.3599,-2.3621,-2.3634,-2.3652,-2.3669,-2.3678,-2.3694,-2.371,-2.3729,-2.3739,-2.3764,-2.3769,-2.3776,-2.3778,-2.3774,-2.3773,-2.378,-2.3778,-2.3783,-2.3783,-2.3783,-2.3783,0,-2.3519,-2.3534,-2.3561,-2.3585,-2.3592,-2.3607,-2.3628,-2.3643,-2.3656,-2.3678,-2.3684,-2.3703,-2.3726,-2.3741,-2.377,-2.3777,-2.3803,-2.3805,-2.3796,-2.3796,-2.3807,-2.3806,-2.3842,-2.3847,-2.3825,-2.3826,-2.3826,0,-2.3531,-2.3546,-2.3572,-2.3585,-2.3597,-2.3617,-2.3631,-2.3646,-2.366,-2.3685,-2.3696,-2.372,-2.3739,-2.3775,-2.3792,-2.3814,-2.3817,-2.3828,-2.382,-2.3816,-2.3816,-2.3814,-2.3815,-2.3828,-2.3829,-2.3829,-2.3829,0,-2.355,-2.3557,-2.3576,-2.3599,-2.3615,-2.3634,-2.3652,-2.3662,-2.368,-2.3696,-2.3719,-2.3734,-2.3764,-2.3787,-2.3812,-2.3824,-2.383,-2.3832,-2.3835,-2.3831,-2.3824,-2.3827,-2.3798,-2.383,-2.383,-2.383,-2.383,-2.383,-2.3561,-2.3575,-2.3596,-2.3618,-2.3634,-2.3651,-2.3666,-2.3681,-2.3701,-2.3726,-2.3734,-2.3759,-2.378,-2.3813,-2.3827,-2.3846,-2.3845,-2.3851,-2.3852,-2.3853,-2.3852,-2.3823,-2.3851,-2.3851,-2.3851,-2.3851,-2.3851,0,-2.358,-2.3594,-2.3614,-2.364,-2.3657,-2.3662,-2.3683,-2.3697,-2.3718,-2.3738,-2.3757,-2.3784,-2.3807,-2.3827,-2.385,-2.3862,-2.3865,-2.3868,-2.3866,-2.3869,-2.3852,-2.3846,-2.3865,-2.3865,-2.3865,-2.3865,-2.3865,-2.3865,-2.3592,-2.3616,-2.3626,-2.3658,-2.3672,-2.3696,-2.3708,-2.3724,-2.374,-2.377,-2.3789,-2.3802,-2.3821,-2.3847,-2.3868,-2.3874,-2.3881,-2.3883,-2.3889,-2.3872,-2.387,-2.3869,-2.3863,-2.3885,-2.3885,-2.3904,-2.3904,-2.3904]},{"header":{"parameterUnit":"m.s-1","parameterCategory":1,"la1":30.2991,"la2":30.254,"lo1":-89.0895,"lo2":-89.0444,"dy":0.0017,"dx":0.0017,"nx":28,"ny":28,"refTime":"2025-06-05T03:00:00:Z","depth":0,"parameterNumber":3,"parameterNumberName":"V-component_of_WINDS"},"data":[0,0,0,0,0,0,0,0,0,0,0,0,0,0,0,0,0,0,0,0,0,0,0,0,0,0,0,0,0,0,0,0,0,0,0,0,0,0,0,0,0,0,0,0,0,0,0,0,0,0,0,0,0,0,0,0,0,0,2.4774,2.4774,0,2.4734,2.4733,2.4733,2.4744,2.4745,2.4746,2.4746,2.4699,2.4697,2.4695,0,0,0,0,0,0,0,0,0,0,0,0,0,2.4857,2.4855,2.4774,2.4774,2.4773,2.4734,2.4733,2.4733,2.4744,2.4745,2.4746,2.4747,2.47,2.4697,2.4695,0,0,0,0,0,0,0,0,0,0,0,0,0,2.4819,2.4854,2.4775,2.4774,2.4774,2.4734,2.4733,2.4733,2.4744,2.4745,2.4746,2.4747,2.4701,2.4698,2.4695,2.4651,0,0,2.4685,2.4684,0,0,0,0,0,0,0,0,2.4821,2.4816,2.4775,2.4774,2.4774,2.4745,2.4745,2.4705,2.4743,2.4755,2.4746,2.4748,2.4713,2.4709,2.4699,2.4649,2.4647,2.4685,2.4683,2.4682,2.4681,0,0,0,0,0,0,0,2.4824,2.4818,2.4758,2.4774,2.4773,2.4775,2.4771,2.4738,2.4727,2.4754,2.4755,2.475,2.4713,2.4702,2.4698,2.4646,2.4685,2.4682,2.4681,2.4679,2.4559,2.4557,0,0,0,0,0,0,2.4827,2.482,2.476,2.4757,2.4801,2.4772,2.4768,2.4753,2.4728,2.4725,2.4749,2.4751,2.4706,2.4701,2.4696,2.4644,2.4682,2.4679,2.4677,2.456,2.4558,2.4557,0,0,0,0,0,0,2.4829,2.4822,2.4761,2.4789,2.4781,2.477,2.4753,2.4752,2.474,2.4724,2.4722,2.474,2.4707,2.47,2.4663,2.4642,2.4678,2.4675,2.4562,2.4559,2.4558,2.4538,0,0,0,0,0,0,2.4831,2.4822,2.4807,2.4788,2.478,2.473,2.4752,2.475,2.4736,2.4738,2.4715,2.4712,2.4707,2.4667,2.466,2.4639,2.4673,2.4563,2.4561,2.4558,2.4541,2.4536,2.4532,0,0,0,0,0,2.4834,2.4801,2.4806,2.4799,2.476,2.4729,2.4723,2.4721,2.4734,2.4718,2.4707,2.4713,2.4646,2.4663,2.4655,2.4633,2.4565,2.4561,2.4558,2.4543,2.4537,2.4532,0,0,0,0,0,0,2.4816,2.4799,2.4804,2.4764,2.4748,2.4731,2.471,2.4714,2.4692,2.4695,2.469,2.4685,2.4647,2.4636,2.4655,2.4589,2.4607,2.4602,2.4598,2.4592,2.4588,2.4591,2.467,0,0,0,0,0,2.4807,2.4785,2.4771,2.4738,2.4729,2.4721,2.4707,2.4707,2.4689,2.4681,2.4668,2.4649,2.4624,2.4607,2.4583,2.4539,2.4534,2.452,2.4515,2.4512,2.4507,2.4484,2.4477,2.4547,2.4547,2.4547,0,0,2.4789,2.4777,2.4763,2.4734,2.4721,2.4697,2.4715,2.4688,2.467,2.4677,2.4641,2.4631,2.4609,2.4569,2.455,2.4558,2.4487,2.4508,2.4505,2.4503,2.448,2.4473,2.4467,2.4544,2.4545,2.4545,0,0,2.4744,2.4733,2.4705,2.4692,2.4673,2.4668,2.4661,2.4643,2.4638,2.4602,2.4607,2.4584,2.4541,2.4526,2.4512,2.4462,2.4466,2.4454,2.4431,2.4408,2.4402,2.4397,2.438,2.4373,2.445,2.445,2.445,0,2.4723,2.4689,2.4689,2.4662,2.4649,2.4656,2.4627,2.4614,2.4587,2.4577,2.4587,2.4534,2.452,2.4476,2.4464,2.4453,2.4444,2.4457,2.4403,2.4398,2.4394,2.4377,2.437,2.4449,2.4449,2.4449,2.4449,0,2.4664,2.464,2.4619,2.4596,2.458,2.4552,2.4546,2.453,2.4531,2.4524,2.4488,2.4472,2.4445,2.4434,2.4434,2.439,2.4396,2.4405,2.4422,2.4386,2.437,2.4364,2.4447,2.4447,2.4448,2.4448,0,0,2.4606,2.4584,2.4576,2.4566,2.4547,2.4527,2.4499,2.4475,2.4461,2.4443,2.4419,2.4382,2.4391,2.4375,2.4373,2.4353,2.4315,2.4364,2.4364,2.4356,2.4266,2.426,2.4253,2.4318,2.4317,2.4316,2.4268,0,2.4559,2.4512,2.4512,2.4468,2.4445,2.4452,2.4428,2.4412,2.4405,2.4384,2.4376,2.435,2.4363,2.4354,2.4335,2.4324,2.4297,2.4328,2.4295,2.4294,2.43,2.4245,2.4238,2.4194,2.4262,2.4261,2.426,0,2.4499,2.4481,2.4435,2.442,2.441,2.4389,2.4367,2.4347,2.4329,2.4325,2.4309,2.4311,2.4281,2.43,2.4258,2.4279,2.4265,2.4258,2.4256,2.4253,2.4275,2.424,2.4179,2.4173,2.425,2.4251,2.4252,0,2.4461,2.4425,2.4394,2.4385,2.4366,2.4351,2.4342,2.4326,2.4311,2.4291,2.4282,2.4258,2.4245,2.4226,2.422,2.4235,2.4179,2.4197,2.4174,2.4174,2.4162,2.4163,2.4099,2.4153,2.4153,2.4153,2.4153,0,2.4409,2.4381,2.4377,2.4357,2.4326,2.4325,2.4293,2.4285,2.4271,2.4249,2.4253,2.4232,2.4226,2.4203,2.4199,2.4165,2.4159,2.4154,2.4153,2.4154,2.4155,2.4145,2.4148,2.4152,2.4152,2.4152,2.4153,0,2.4362,2.4358,2.4324,2.431,2.4305,2.4283,2.427,2.425,2.4245,2.4217,2.421,2.42,2.4174,2.4167,2.4135,2.4132,2.4093,2.4094,2.4099,2.4099,2.4077,2.4079,2.4004,2.3994,2.4055,2.4054,2.4054,0,2.433,2.4308,2.4292,2.4279,2.427,2.4248,2.4234,2.4232,2.4217,2.4196,2.4179,2.4154,2.4134,2.4092,2.4081,2.4056,2.4058,2.4033,2.4054,2.4055,2.4057,2.4059,2.4057,2.4029,2.4028,2.4028,2.4027,0,2.4272,2.4272,2.4252,2.4232,2.4216,2.42,2.4184,2.4172,2.4168,2.4151,2.4126,2.411,2.4079,2.4053,2.4029,2.4018,2.4022,2.4021,2.4015,2.4015,2.4019,2.4017,2.4089,2.4023,2.4023,2.4023,2.4024,2.4024,2.4231,2.4213,2.42,2.4178,2.4166,2.4152,2.4134,2.4126,2.4106,2.4081,2.4081,2.4053,2.4036,2.4004,2.3992,2.397,2.3977,2.3967,2.3964,2.3962,2.3961,2.4023,2.3965,2.3965,2.3965,2.3965,2.3965,0,2.4175,2.4167,2.4147,2.4126,2.4109,2.4116,2.4099,2.4083,2.406,2.4044,2.4025,2.3996,2.3972,2.3959,2.3935,2.3919,2.392,2.3913,2.3914,2.3912,2.3955,2.3964,2.3913,2.3913,2.3913,2.3913,2.3913,2.3913,2.4143,2.4113,2.4111,2.4075,2.4066,2.4041,2.4031,2.4017,2.4005,2.3973,2.3954,2.3947,2.3932,2.3907,2.3885,2.3882,2.3873,2.3865,2.3862,2.3903,2.3909,2.3914,2.3922,2.3863,2.3863,2.3821,2.382,2.382]}]]